(323097) = 2002 VA114 = 2006 UT59

Discovered at Palomar on 2002-11-13 by NEAT.

Orbit

Orbit type: Main Belt

Note: WebGL enabled browser required.

epoch2024-03-31.0
epoch JD2460400.5
perihelion date2023-03-29.42418
perihelion JD2460032.92418
argument of perihelion (°)150.57968
ascending node (°)230.78074
inclination (°)11.84126
eccentricity0.2446686
perihelion distance (AU)1.9412586
Tisserand w.r.t. Jupiter3.4
ΔV w.r.t. Earth (km/sec)9.4
semimajor axis (AU)2.5700755
mean anomaly (°)87.92897
mean daily motion (°/day)0.23921310
aphelion distance (AU)3.199
period (years)4.12
P-vector [x]0.92320930
P-vector [y]0.30014692
P-vector [z]0.23999253
Q-vector [x]-0.34987330
Q-vector [y]0.91480306
Q-vector [z]0.20180197
absolute magnitude17.19
phase slope0.15
uncertainty0
referenceMPEC 2024-D06
observations used271
oppositions10
arc length (days)7764
first opposition used2002
last opposition used2024
residual rms (arc-secs)0.70
perturbers coarse indicatorM-v
perturbers precise indicator003Ek
first observation date used2002-11-13.0
last observation date used2024-02-15.0
computer nameMPCLINUX
JD of orbit computation2456966.714229
perihelion JD uncertainty (days)1.4804E-04
argument of perihelion uncertainty (°)4.6692E-05
ascending node uncertainty (°)2.7570E-05
inclination uncertainty (°)6.8133E-06
eccentricity uncertainty 1.7503E-07
perihelion distance uncertainty (AU)4.7923E-07
Minimum Orbit Intersection Distances (in AU)
for orbit epoch: 2460400.5, reference: E2024-D06
Mercury1.60948
Venus1.22786
Earth0.95465
Mars0.51242
Jupiter2.28577
Saturn6.47431
Uranus15.3679
Neptune27.4837

Observations

272 total observations over interval: 2002 11 13.50096 – 2024 02 15.330547
These data are available for download (format description).

Date (UT) J2000 RA J2000 Dec Magn Location Ref
2002 11 13.50096 04 13 03.44 +18 24 35.9 20.3   644 – Palomar Mountain/NEAT MPS 66526
2002 11 13.51374 04 13 02.74 +18 24 26.6 20.2   644 – Palomar Mountain/NEAT MPS 66526
2002 11 13.52430 04 13 02.19 +18 24 20.0 20.1   644 – Palomar Mountain/NEAT MPS 66526
2002 11 14.33247 04 12 20.88 +18 15 14.1 19.3   704 – Lincoln Laboratory ETS, New Mexico MPS 66526
2002 11 14.36798 04 12 18.89 +18 14 50.0 19.4   704 – Lincoln Laboratory ETS, New Mexico MPS 66526
2002 11 14.38564 04 12 17.93 +18 14 36.3 19.4   704 – Lincoln Laboratory ETS, New Mexico MPS 66526
2002 11 14.40337 04 12 17.01 +18 14 25.4 19.4   704 – Lincoln Laboratory ETS, New Mexico MPS 66526
2002 11 16.24745 04 10 40.62 +17 53 36.3   644 – Palomar Mountain/NEAT MPS 288631
2002 11 16.32063 04 10 36.57 +17 52 44.7   644 – Palomar Mountain/NEAT MPS 288631
2002 11 16.38535 04 10 32.90 +17 52 00.7   644 – Palomar Mountain/NEAT MPS 288631
2002 11 24.26111 04 03 25.05 +16 23 59.6 19.3   644 – Palomar Mountain/NEAT MPS 68305
2002 11 24.28220 04 03 23.85 +16 23 45.4 19.3   644 – Palomar Mountain/NEAT MPS 68305
2002 11 24.30445 04 03 22.60 +16 23 30.8 19.7   644 – Palomar Mountain/NEAT MPS 68305
2002 11 25.21943 04 02 33.03 +16 13 32.2 18.9   644 – Palomar Mountain/NEAT MPS 68305
2002 11 25.28302 04 02 29.42 +16 12 51.0 18.9   644 – Palomar Mountain/NEAT MPS 68305
2002 11 25.36201 04 02 24.93 +16 11 59.6 19.0   644 – Palomar Mountain/NEAT MPS 68305
2006 10 19.30086 02 00 27.68 +21 19 36.3 19.1 V 703 – Catalina Sky Survey MPS 184288
2006 10 19.31105 02 00 27.18 +21 19 29.0 18.9 V 703 – Catalina Sky Survey MPS 184288
2006 10 19.32123 02 00 26.78 +21 19 20.4 19.0 V 703 – Catalina Sky Survey MPS 184288
2006 10 19.92355 02 00 02.57 +21 11 37.0 19.1 V A50 – Andrushivka Astronomical Observatory MPS 190418
2006 10 19.94545 02 00 01.61 +21 11 20.5 19.0 V A50 – Andrushivka Astronomical Observatory MPS 190418
2006 10 20.34462 01 59 45.38 +21 06 14.5 18.9 V G96 – Mt. Lemmon Survey MPS 184288
2006 10 20.34545 01 59 45.41 +21 06 14.0 18.6 R 644 – Palomar Mountain/NEAT MPS 185387
2006 10 20.35146 01 59 45.09 +21 06 09.2 19.1 V G96 – Mt. Lemmon Survey MPS 184288
2006 10 20.35832 01 59 44.80 +21 06 03.9 18.9 V G96 – Mt. Lemmon Survey MPS 184288
2006 10 20.36514 01 59 44.48 +21 05 58.5 18.9 V G96 – Mt. Lemmon Survey MPS 184288
2006 10 20.36588 01 59 44.50 +21 05 58.3 18.6 R 644 – Palomar Mountain/NEAT MPS 185387
2006 10 20.38632 01 59 43.60 +21 05 42.3 18.6 R 644 – Palomar Mountain/NEAT MPS 185387
2006 10 21.41769 01 59 01.47 +20 52 16.0 18.7 R 644 – Palomar Mountain/NEAT MPS 185387
2006 10 21.43813 01 59 00.58 +20 51 59.8 18.6 R 644 – Palomar Mountain/NEAT MPS 185387
2006 10 21.45841 01 58 59.70 +20 51 43.5 18.7 R 644 – Palomar Mountain/NEAT MPS 185387
2006 10 29.20248 01 53 44.91 +19 05 27.2 18.2   704 – Lincoln Laboratory ETS, New Mexico MPS 185387
2006 10 29.21442 01 53 44.38 +19 05 18.6 18.3   704 – Lincoln Laboratory ETS, New Mexico MPS 185387
2006 10 29.22642 01 53 43.90 +19 05 07.1 18.9   704 – Lincoln Laboratory ETS, New Mexico MPS 185387
2006 10 29.23812 01 53 43.37 +19 04 57.8 19.0   704 – Lincoln Laboratory ETS, New Mexico MPS 185387
2006 10 29.25015 01 53 42.83 +19 04 48.7 19.3   704 – Lincoln Laboratory ETS, New Mexico MPS 185387
2006 11 07.32382 01 48 17.05 +16 55 54.3 19.3 R 644 – Palomar Mountain/NEAT MPS 186494
2006 11 07.34417 01 48 16.35 +16 55 37.3 19.1 R 644 – Palomar Mountain/NEAT MPS 186494
2006 11 07.36452 01 48 15.62 +16 55 20.0 20.0 R 644 – Palomar Mountain/NEAT MPS 186494
2006 11 14.24207 01 45 13.75 +15 21 42.6 19.8 V 703 – Catalina Sky Survey MPS 186918
2006 11 14.24853 01 45 13.68 +15 21 37.8 19.5 V 703 – Catalina Sky Survey MPS 186918
2006 11 14.25499 01 45 13.50 +15 21 34.4 20.5 V 703 – Catalina Sky Survey MPS 186918
2006 11 14.26147 01 45 13.39 +15 21 27.3 19.4 V 703 – Catalina Sky Survey MPS 186918
2006 11 15.09513 01 44 56.65 +15 10 36.7 20.0 V 691 – Steward Observatory, Kitt Peak-Spacewatch MPS 186918
2006 11 15.11824 01 44 56.13 +15 10 19.2 20.0 V 691 – Steward Observatory, Kitt Peak-Spacewatch MPS 186918
2006 11 15.14142 01 44 55.59 +15 10 01.6 19.7 V 691 – Steward Observatory, Kitt Peak-Spacewatch MPS 186918
2006 11 19.18727 01 43 48.77 +14 19 29.7 20.1   704 – Lincoln Laboratory ETS, New Mexico MPS 188574
2006 11 19.19953 01 43 48.63 +14 19 21.0 20.0   704 – Lincoln Laboratory ETS, New Mexico MPS 188574
2006 11 19.21179 01 43 48.38 +14 19 12.5 19.9   704 – Lincoln Laboratory ETS, New Mexico MPS 188574
2006 11 19.22407 01 43 48.25 +14 19 03.5 19.8   704 – Lincoln Laboratory ETS, New Mexico MPS 188574
2006 11 19.23634 01 43 48.07 +14 18 54.3 20.2   704 – Lincoln Laboratory ETS, New Mexico MPS 188574
2006 11 27.06670 01 43 04.65 +12 52 46.4   691 – Steward Observatory, Kitt Peak-Spacewatch MPS 190418
2006 11 27.08458 01 43 04.65 +12 52 35.9   691 – Steward Observatory, Kitt Peak-Spacewatch MPS 190418
2006 11 27.10248 01 43 04.63 +12 52 25.5   691 – Steward Observatory, Kitt Peak-Spacewatch MPS 190418
2010 06 14.802455 23 15 12.63 +09 46 22.1   C51 – WISE MPS 333480
2010 06 14.934759 23 15 22.66 +09 48 04.5   C51 – WISE MPS 333480
2010 06 15.067064 23 15 32.68 +09 49 46.3   C51 – WISE MPS 333480
2010 06 15.199367 23 15 42.66 +09 51 27.1   C51 – WISE MPS 333480
2010 06 15.331670 23 15 52.63 +09 53 11.1   C51 – WISE MPS 333480
2010 06 15.397759 23 15 57.68 +09 54 01.5   C51 – WISE MPS 333480
2010 06 15.463975 23 16 02.58 +09 54 53.1   C51 – WISE MPS 333480
2010 06 15.53006 23 16 07.64 +09 55 42.0   C51 – WISE MPS 333480
2010 06 15.596150 23 16 12.54 +09 56 34.3   C51 – WISE MPS 333480
2010 06 15.596278 23 16 12.56 +09 56 35.2   C51 – WISE MPS 333480
2010 06 15.662367 23 16 17.52 +09 57 25.6   C51 – WISE MPS 333480
2010 06 15.728455 23 16 22.51 +09 58 16.7   C51 – WISE MPS 333480
2010 06 15.794670 23 16 27.47 +09 59 07.2   C51 – WISE MPS 333480
2010 06 15.860758 23 16 32.43 +09 59 58.8   C51 – WISE MPS 333480
2010 06 15.926975 23 16 37.41 +10 00 49.7   C51 – WISE MPS 333480
2010 06 16.059278 23 16 47.34 +10 02 31.9   C51 – WISE MPS 333480
2010 06 16.191582 23 16 57.24 +10 04 13.6   C51 – WISE MPS 333480
2010 06 16.323885 23 17 07.15 +10 05 55.7   C51 – WISE MPS 333480
2010 06 16.456190 23 17 17.04 +10 07 37.5   C51 – WISE MPS 333480
2010 09 12.526927 23 53 49.034 +19 42 44.18 19.96 g F51 – Pan-STARRS 1, Haleakala MPS 365431
2010 09 12.537810 23 53 48.608 +19 42 40.09 19.91 g F51 – Pan-STARRS 1, Haleakala MPS 365431
2010 09 15.38779 23 52 04.44 +19 23 41.3 19.4 V 703 – Catalina Sky Survey MPS 347907
2010 09 15.39517 23 52 04.15 +19 23 39.1 19.2 V 703 – Catalina Sky Survey MPS 347907
2010 09 15.40266 23 52 03.82 +19 23 35.8 19.2 V 703 – Catalina Sky Survey MPS 347907
2010 09 15.41018 23 52 03.54 +19 23 32.3 19.6 V 703 – Catalina Sky Survey MPS 347907
2010 09 17.509781 23 50 44.099 +19 07 35.50 19.33 r F51 – Pan-STARRS 1, Haleakala MPS 365431
2010 09 17.521899 23 50 43.598 +19 07 29.59 19.29 r F51 – Pan-STARRS 1, Haleakala MPS 365431
2010 09 26.305975 23 45 05.003 +17 43 53.28 19.16 i F51 – Pan-STARRS 1, Haleakala MPS 365431
2010 09 26.318560 23 45 04.485 +17 43 45.15 19.14 i F51 – Pan-STARRS 1, Haleakala MPS 365431
2010 10 01.83418 23 41 44.01 +16 39 37.6 18.8 V J75 – OAM Observatory, La Sagra MPS 349397
2010 10 01.84713 23 41 43.52 +16 39 28.5 18.7 V J75 – OAM Observatory, La Sagra MPS 349397
2010 10 01.86005 23 41 43.04 +16 39 19.2 18.6 V J75 – OAM Observatory, La Sagra MPS 349397
2010 10 05.12539 23 39 55.87 +15 58 18.3 19.2 R H15 – ISON-NM Observatory, Mayhill MPS 349397
2010 10 05.15228 23 39 55.01 +15 57 57.6 19.3 R H15 – ISON-NM Observatory, Mayhill MPS 349397
2010 10 05.17914 23 39 54.05 +15 57 37.0 19.4 R H15 – ISON-NM Observatory, Mayhill MPS 349397
2010 10 06.82662 23 39 04.60 +15 36 14.3 18.4 V J75 – OAM Observatory, La Sagra MPS 349397
2010 10 06.83925 23 39 04.20 +15 36 05.9 18.9 V J75 – OAM Observatory, La Sagra MPS 349397
2010 10 06.85184 23 39 03.84 +15 35 55.9 18.8 V J75 – OAM Observatory, La Sagra MPS 349397
2010 10 08.18412 23 38 26.08 +15 18 25.7 18.9 V 703 – Catalina Sky Survey MPS 349397
2010 10 08.19097 23 38 25.90 +15 18 20.1 19.2 V 703 – Catalina Sky Survey MPS 349397
2010 10 08.19786 23 38 25.65 +15 18 14.9 18.7 V 703 – Catalina Sky Survey MPS 349397
